Showing default

WNISAT 1R, 42835

Orbit data source: Space-Track

WNISAT 1R, 42835 is a payload satellite owned by WNI (JP) in SSO that was launched on Fri, 14 Jul 2017 UTC via a SOYUZ-2-1A launch vehicle from the Tyuratam Missile And Space Complex (TTMTR). Payload-class satellites include a variety of spacecraft equipped with specific instruments for various scientific and technological missions. These include communications satellites like Starlink; space stations such as the ISS; scientific satellites like the Hubble; Earth observation satellites from companies like Planet Labs, Umbra, and HawkEye 360; GPS; miniature CubeSats for education and research; and military/defense satellites.

Loading next visibility...
Identifier
42835, 2017-042L
Orbit
SSO
Country
Flag of JPJP / JPN
Related business
Manufacturer
AXELSPACE
Mission
Operational Commercial Weather
Bus & Motor
HODOYOSHI, Unknown motor
Mass
40 kg wet, 40 kg dry
Launch date (UTC)
2017-07-14 (8 years ago)
Launch vehicle
SOYUZ-2-1A
Launch site
Tyuratam Missile And Space Complex (TTMTR)
Object type
Payload
Rocket body
Debris
Shape & HBR
Box + 2 Pan, 0.8 m
Radar Cross Section
0.514 m², Medium (>0.1 m² and < 1m²)

Expand to show TLE details & history
Last TLE update: 11 hours ago

TLE from 11 hours ago
0 WNISAT 1R
1 42835U 17042L   25309.23180951  .00003134  00000-0  25611-3 0  9993
2 42835  97.4177 109.6095 0010568 173.2851 186.8517 15.00021383452916
Epoch: 2025-11-05T05:33Z
TLE epoch observation values (Epoch: 2025-11-05T05:33:48.341Z)
Latitude
-0.00001°
Longitude
-18.54936°
Altitude
577.182 km
Speed
7.568 km/s
True Right ascension
07h 18m 26s
True Declination
0° 00' 00"
Sunlit
Object was in daylight at epoch
Visualization orbit readout
Latitude
Unknown
Longitude
Unknown
Altitude
Unknown
Speed
Unknown
Apparent Right ascension
Unknown
Apparent Declination
Unknown
Sunlit
N/A
Visualization observer readout
Local Sidereal Time
12:51:36
Azimuth
Unknown
Elevation
Unknown
Doppler factor
Unknown
Orbital elements
Apogee altitude
571.16 km
Perigee altitude
556.487 km
Semi-major axis
6,941.96 km
Eccentricity
0.00106
Inclination
97.4177°
RAAN
109.6095°
Arg. of periapsis
173.2851°
True anomaly
186.83727°
Mean anomaly
186.8517°
Eccentric anomaly
186.84448°
Mean motion
3.75249 °/min
Orbital period
95.94 mins
BSTAR
0.00025611
Loading maneuver chart data...
Computing Atmospheric mass density...
Loading historical data...
Loading historical data...
Loading historical data...
Loading historical data...
Loading historical data...
Loading historical data...
Loading historical data...

Documentation

Showing up to 5 results
|